Location: Unspecified
(0.0000°N, 0.0000°E)
Time: 13:10:24
(UTC+02:00)

ISS - All Passes

Search period start: 23 July 2016 00:00
Search period end: 02 August 2016 00:00
Orbit: 401 x 404 km, 51.6° (Epoch: 23 July)

Date Brightness Start Highest point End Pass type
(mag) Time Alt. Az. Time Alt. Az. Time Alt. Az.
23 Jul - 09:02:00 10° N 09:04:25 19° NE 09:06:52 10° ESE daylight
23 Jul - 10:39:17 10° W 10:40:39 12° SW 10:42:02 10° SSW daylight
23 Jul - 20:36:38 10° SSE 20:38:02 12° SE 20:39:27 10° E visible
23 Jul - 22:11:51 10° WSW 22:14:16 19° NW 22:16:40 10° N visible
24 Jul - 09:44:51 10° WNW 09:47:47 31° SW 09:50:44 10° S daylight
24 Jul - 21:18:13 10° SW 21:21:25 55° NW 21:24:36 10° NNE visible
25 Jul - 08:51:42 10° NNW 08:54:56 80° NE 08:58:11 10° SE daylight
25 Jul - 20:25:27 10° SSW 20:28:34 43° SE 20:31:40 10° NE visible
26 Jul - 07:59:20 10° N 08:02:05 25° NE 08:04:51 10° ESE daylight
26 Jul - 19:33:37 10° SSE 19:35:42 16° SE 19:37:47 10° E daylight
26 Jul - 21:10:01 10° W 21:11:56 15° NW 21:13:51 10° NNW visible
27 Jul - 08:42:45 10° WNW 08:45:26 24° SW 08:48:08 10° S daylight
27 Jul - 20:15:59 10° SW 20:19:04 39° NW 20:22:08 10° NNE daylight
28 Jul - 07:49:21 10° NW 07:52:35 73° SW 07:55:50 10° SSE daylight
28 Jul - 19:23:01 10° SSW 19:26:13 61° SE 19:29:26 10° NE daylight
29 Jul - 06:56:45 10° NNW 06:59:44 34° NE 07:02:44 10° ESE visible
29 Jul - 18:30:50 10° S 18:33:22 21° SE 18:35:53 10° ENE daylight
29 Jul - 20:08:30 10° WNW 20:09:36 11° NW 20:10:42 10° NW daylight
30 Jul - 06:05:19 10° NNE 06:06:52 13° NE 06:08:26 10° E visible
30 Jul - 07:40:46 10° W 07:43:06 18° SW 07:45:27 10° S visible
30 Jul - 19:13:50 10° WSW 19:16:44 29° NW 19:19:36 10° N daylight
31 Jul - 06:47:04 10° NW 06:50:14 51° SW 06:53:25 10° SSE visible
31 Jul - 18:20:37 10° SW 18:23:52 86° SE 18:27:07 10° NE daylight
01 Aug - 05:54:16 10° NNW 05:57:23 46° NE 06:00:32 10° SE night (unlit)
01 Aug - 17:28:12 10° S 17:31:01 27° SE 17:33:50 10° ENE daylight
